Regional Weather Roundup
Issued by NWS Jackson, KY

Home | Current Version | Previous Version | Graphics & Text | Print | Product List | Glossary On
Versions: 1 2 3 4 5 6 7 8 9 10 11 12 13 14 15 16 17 18 19 20 21 22 23 24 25 26 27 28 29 30 31 32 33 34 35 36 37 38 39 40 41 42 43 44 45 46 47 48 49 50
000
ASUS43 KJKL 311005
RWRJKL

EAST KENTUCKY HOURLY WEATHER ROUNDUP
NATIONAL WEATHER SERVICE JACKSON KY
500 AM EST SAT JAN 31 2015

NOTE: "FAIR" INDICATES FEW OR NO CLOUDS BELOW 12,000 FEET WITH
NO SIGNIFICANT WEATHER AND/OR OBSTRUCTIONS TO VISIBILITY.

* THESE REPORTS ARE NOT UNDER NWS QUALITY CONTROL AND MAY NOT
  REPORT WEATHER SUCH AS PRECIPITATION AND FOG.

KYZ079-080-083-085-087-088-110-112-115-119-120-311100
...EASTERN KENTUCKY...

CITY           SKY/WX    TMP DP  RH WIND       PRES   REMARKS
JACKSON        CLEAR     21  12  68 E3        30.36F
LONDON         CLEAR     20  13  74 CALM      30.36F
SOMERSET*      CLEAR     18  18 100 CALM      30.40S
MONTICELLO*    CLEAR     15  13  92 CALM      30.40F
MIDDLESBORO*   CLEAR     19  17  92 CALM      30.39S
HARLAN APT*    SUNNY     21  19  93 CALM      30.36R
BLACK MTN*       N/A     14  10  85 NE3         N/A
PIKEVILLE APT* CLEAR     19  12  73 CALM      30.35F
BIG SANDY*     SUNNY     18  15  87 CALM      30.38F
MOREHEAD APT*  SUNNY     19  12  73 SE3       30.40F
$$

KYZ035-036-041-042-044-050-067-078-099-311100
...CENTRAL KENTUCKY...

CITY           SKY/WX    TMP DP  RH WIND       PRES   REMARKS
MT STERLING*   CLEAR     18  14  86 CALM      30.39F
FLEMING/MASON* CLEAR     16  13  90 SE5       30.39F WCI   9
DANVILLE*      CLEAR     18  16  93 CALM      30.38F
RICHMOND*      CLEAR     18  16  93 SE3       30.37F
LEXINGTON      CLEAR     19  12  74 SE6       30.37F WCI  11
FRANKFORT      CLEAR     16  11  80 CALM      30.37F
$$

KYZ091>093-OHZ055-061-077-WVZ005-015-034-035-042-311100
...SOUTHERN OHIO/WEST VIRGINIA...

CITY           SKY/WX    TMP DP  RH WIND       PRES   REMARKS
COVINGTON      CLEAR     18  13  80 S5        30.36F WCI  11
COLUMBUS       CLEAR     12   8  84 CALM      30.38F
DAYTON         CLEAR     19  13  77 S7        30.35F WCI  10
WILMINGTON     CLEAR     16  10  77 S5        30.36F WCI   9
HUNTINGTON     CLEAR     14  12  92 E3        30.40F
CHARLESTON     CLEAR     15  12  88 CALM      30.40S
PINEVILLE*     CLEAR     13  12  96 MISG      30.39S
BECKLEY        CLEAR     10   6  84 W5        30.27F WCI   2
BLUEFIELD      CLEAR     13   8  81 W6        30.25F WCI   4
$$

VAZ002-007-008-TNZ017-027-036-066-071-311100
...SOUTHWEST VIRGINIA/EAST TENNESSEE...

CITY           SKY/WX    TMP DP  RH WIND       PRES   REMARKS
WISE*          CLEAR     19  12  73 CALM      30.29S
JONESVILLE*    SUNNY     16  14  93 CALM      30.38S
ABINGDON*      CLEAR     22  13  69 CALM      30.32S
BRISTOL        CLEAR     18  14  84 CALM      30.36S
KNOXVILLE      CLEAR     25  17  72 N7        30.36F WCI  17
OAK RIDGE      CLEAR     24  18  77 CALM      30.39S
CROSSVILLE     CLEAR     22  17  81 NE3       30.32F
NASHVILLE      PTCLDY    25  21  85 CALM      30.38F
$$

...KEY TO REMARKS...
VSB - VISIBILITY IN MILES
WCI - WIND CHILL INDEX
HX  - HEAT INDEX

$$



USA.gov is the U.S. government's official web portal to all federal, state and local government web resources and services.